EW8626 Weather Reports


time (UTC)temp
C
wind
direction
speed
KPH
gust
KPH
rain 1hr
cm
rain 24hr
cm
rain mn
cm
humidity
%
barometer
mb
20260503200039 16 160 0.0 16.1 0.00 0.00 0.00 42 1011.4
20260503194536 16 154 0.0 19.3 0.00 0.00 0.00 40 1011.8
20260503193040 15 175 0.0 16.1 0.00 0.00 0.00 40 1012.1
20260503191532 14 158 1.6 20.9 0.00 0.00 0.00 42 1012.6
20260503190028 14 156 1.6 19.3 0.00 0.00 0.00 45 1012.9
20260503184528 15 154 1.6 14.5 0.00 0.00 0.00 40 1013.3
20260503183034 15 170 1.6 19.3 0.00 0.00 0.00 42 1013.4
20260503181540 15 146 4.8 20.9 0.00 0.00 0.00 38 1013.6
20260503180022 15 183 0.0 19.3 0.00 0.00 0.00 42 1013.7
20260503174520 15 164 3.2 17.7 0.00 0.00 0.00 39 1013.9
20260503173037 15 274 1.6 16.1 0.00 0.00 0.00 42 1014.0
20260503171514 14 183 0.0 20.9 0.00 0.00 0.00 43 1014.3
20260503150103 11 141 1.6 19.3 0.00 0.00 0.00 50 1016.0
20260503100106 2 43 0.0 0.0 0.00 0.00 0.00 79 1014.8
20260503081548 1 7 0.0 0.0 0.00 0.00 0.00 92 1014.8
20260503071546 1 7 0.0 0.0 0.00 0.00 0.00 92 1014.7
20260503054535 1 7 0.0 0.0 0.00 0.00 0.00 92 1015.2
20260503053039 1 7 0.0 0.0 0.00 0.00 0.00 91 1015.3
20260503051534 1 7 0.0 0.0 0.00 0.00 0.00 91 1015.2
20260503050034 1 7 0.0 0.0 0.00 0.00 0.00 90 1015.1
20260503044603 2 7 0.0 0.0 0.00 0.00 0.00 89 1015.1
20260503043028 2 7 0.0 0.0 0.00 0.00 0.00 88 1015.2
20260503041527 2 7 0.0 0.0 0.00 0.00 0.00 87 1015.1
20260503040023 2 7 0.0 0.0 0.00 0.00 0.00 87 1015.2
20260503034523 2 7 0.0 0.0 0.00 0.00 0.00 84 1015.3
20260503033024 2 7 0.0 0.0 0.00 0.00 0.00 85 1015.3
20260503031522 3 7 0.0 0.0 0.00 0.00 0.00 84 1015.3
20260503030020 3 7 0.0 0.0 0.00 0.00 0.00 82 1015.3
20260503024521 3 7 0.0 0.0 0.00 0.00 0.00 80 1015.2
20260503023019 4 7 0.0 0.0 0.00 0.00 0.00 80 1015.1
20260503021523 5 7 0.0 0.0 0.00 0.00 0.00 77 1015.1
20260503020031 5 7 0.0 0.0 0.00 0.00 0.00 75 1014.9
20260503014517 6 7 0.0 0.0 0.00 0.00 0.00 70 1014.8
20260503013017 6 7 0.0 0.0 0.00 0.00 0.00 67 1014.6
20260503011516 7 7 0.0 0.0 0.00 0.00 0.00 57 1014.5
20260503010016 7 7 0.0 0.0 0.00 0.00 0.00 58 1014.4
20260503004515 8 7 0.0 0.0 0.00 0.00 0.00 57 1014.2
20260503003027 8 6 0.0 1.6 0.00 0.00 0.00 54 1014.1
20260503001514 9 8 0.0 1.6 0.00 0.00 0.00 50 1014.0
20260503000024 10 10 0.0 9.7 0.00 0.00 0.00 50 1013.9
20260502234515 10 349 0.0 0.0 0.00 0.00 0.00 47 1013.7
20260502233013 10 360 0.0 11.3 0.00 0.00 0.00 45 1013.6
20260502231512 11 2 1.6 17.7 0.00 0.00 0.00 43 1013.6
20260502230011 10 315 1.6 14.5 0.00 0.00 0.00 45 1013.6
20260502224511 10 312 1.6 8.0 0.00 0.00 0.00 44 1013.6
20260502223029 12 5 1.6 16.1 0.00 0.00 0.00 46 1013.5
20260502221509 11 305 0.0 17.7 0.00 0.00 0.00 43 1013.4
20260502220009 12 330 1.6 9.7 0.00 0.00 0.00 42 1013.3
20260502214509 11 324 0.0 8.0 0.00 0.00 0.00 43 1013.2
20260502213009 12 303 1.6 6.4 0.00 0.00 0.00 43 1013.2
20260502211507 11 358 1.6 11.3 0.00 0.00 0.00 45 1013.2
20260502210008 11 2 1.6 12.9 0.00 0.00 0.00 44 1013.2
20260502204508 11 348 0.0 6.4 0.00 0.00 0.00 45 1013.2
20260502203006 11 332 1.6 9.7 0.00 0.00 0.00 44 1013.3
20260502201505 11 10 3.2 19.3 0.00 0.00 0.00 44 1013.5